Date,TemperatureHighF,TemperatureAvgF,TemperatureLowF,DewpointHighF,DewpointAvgF,DewpointLowF,HumidityHigh,HumidityAvg,HumidityLow,PressureMaxIn,PressureMinIn,WindSpeedMaxMPH,WindSpeedAvgMPH,GustSpeedMaxMPH,PrecipitationSumIn
2013-1-1,32.9,30.5,24.2,30.2,27.2,18.0,94,87,77,30.11,29.98,13,4,13,0.00
2013-1-2,29.2,22.3,16.3,18.1,15.0,12.5,87,74,57,30.29,30.09,15,3,15,0.00
2013-1-3,34.1,22.7,9.0,22.3,16.0,6.2,93,76,60,30.30,30.18,22,4,22,0.00
2013-1-4,34.2,29.7,27.8,23.5,21.7,19.5,78,72,59,30.28,30.17,24,8,28,0.00
2013-1-5,37.3,30.5,26.8,26.3,22.7,18.4,82,73,61,30.44,30.20,17,4,17,0.00
2013-1-6,38.9,35.8,33.2,31.5,28.5,25.6,85,75,68,30.22,30.03,13,4,14,0.00
2013-1-7,36.2,31.0,19.9,30.3,25.6,17.7,91,81,66,30.49,30.22,14,3,15,0.00
2013-1-8,44.7,28.6,15.5,30.7,22.7,13.1,93,80,55,30.43,30.30,14,1,14,0.00
2013-1-9,44.0,35.3,22.8,40.7,32.0,20.9,95,88,67,30.51,30.24,19,4,19,0.00
2013-1-10,45.7,36.4,26.2,34.2,29.4,24.5,95,77,50,30.64,30.33,23,2,23,0.00
2013-1-11,53.1,46.2,39.8,51.1,38.9,28.4,96,77,52,30.33,30.00,23,4,25,0.00
2013-1-12,64.1,50.6,39.0,57.6,47.9,37.7,98,91,74,30.11,29.97,12,1,12,0.00
2013-1-13,69.8,62.1,53.2,56.2,53.6,49.2,95,74,61,29.97,29.84,23,4,26,0.30
2013-1-14,58.4,41.2,32.4,56.3,34.9,25.2,96,78,62,30.37,29.84,28,3,28,0.07
2013-1-15,34.3,31.0,26.2,30.4,25.7,22.5,93,80,73,30.41,30.10,11,2,11,0.00
2013-1-16,36.1,34.1,32.0,34.5,32.3,30.2,96,93,87,30.10,29.91,15,4,16,0.00
2013-1-17,35.6,33.4,30.9,30.4,28.5,27.5,90,82,75,30.21,30.03,15,4,15,0.00
2013-1-18,33.2,27.7,19.4,28.3,16.8,11.8,89,64,49,30.54,30.16,23,6,23,0.00
2013-1-19,54.1,44.8,33.1,22.9,18.2,9.6,49,34,26,30.31,29.85,29,10,31,0.00
2013-1-20,45.9,37.1,24.0,31.5,20.5,13.3,65,51,39,30.15,29.78,33,8,33,0.00
2013-1-21,27.1,23.0,13.9,20.4,14.1,1.7,78,68,55,30.13,29.93,25,5,25,0.00
2013-1-22,15.3,11.1,8.2,3.8,0.0,-2.7,74,61,48,30.35,30.09,22,7,22,0.00
2013-1-23,16.7,12.2,5.9,10.5,2.8,-0.3,82,66,51,30.39,30.15,18,4,18,0.00
2013-1-24,23.2,16.0,9.1,12.1,6.2,-3.7,88,67,33,30.61,30.12,21,3,21,0.00
2013-1-25,20.6,16.0,9.1,16.9,10.2,2.2,88,78,58,30.59,30.08,9,1,9,0.00
2013-1-26,28.0,22.6,13.6,23.5,18.4,9.9,90,84,76,30.51,30.15,11,3,11,0.00
2013-1-27,34.7,23.5,10.3,21.8,15.4,7.5,92,73,51,30.61,30.38,9,1,9,0.00
2013-1-28,50.1,41.6,32.0,49.3,38.6,21.4,97,89,60,30.39,30.05,17,5,17,0.00
2013-1-29,65.5,56.1,49.4,55.7,51.4,48.6,98,85,60,30.07,29.80,22,5,22,0.00
2013-1-30,72.0,60.5,49.9,57.9,52.4,46.3,94,77,55,29.80,29.21,37,6,37,1.15
2013-1-31,49.7,30.0,22.9,46.3,22.5,13.6,91,74,57,29.88,29.18,37,11,37,0.20